COSMOS 1275 DEB, 12676

Orbit data source: Space-Track

COSMOS 1275 DEB, 12676 is space debris in LEO originally from a launch on Thu, 04 Jun 1981 UTC launched from the Plesetsk Missile And Space Complex (PKMTR). Debris objects in space refer to the collection of defunct objects orbiting the Earth. Examples of debris include non-operational satellites, rocket bodies, and fragments generated from explosions, collisions, or faulty payload assembly.

Loading next visibility...
Identifier
12676, 1981-053AG
Orbit
LEO
Last TLE update
13 hours ago
Origin
Manufacturer
Unknown
Mission
Spacecraft
Bus & Motor
Unknown
Mass
Unknown
Launch date (UTC)
1981-06-04 (44 years ago)
Launch vehicle
Unknown
Launch site
Plesetsk Missile And Space Complex (PKMTR)
Object type
Payload
Rocket body
Debris
Shape & HBR
Unknown
Radar Cross Section
Medium (>0.1 m² and <1 m²)

Expand to show TLE details & history

TLE from 13 hours ago
0 COSMOS 1275 DEB
1 12676U 81053AG  25181.82135935  .00000323  00000-0  26295-3 0  9997
2 12676  82.9439  25.9397 0044870  20.6790 350.6799 13.86420836212039
Epoch: 2025-06-30T19:42Z
TLE epoch observation values (Epoch: 2025-06-30T19:42:45.447Z)
Latitude
11.14099°
Longitude
172.51415°
Altitude
910.95 km
Speed
7.414 km/s
True Right ascension
01h 49m 19s
True Declination
11° 04' 38"
Sunlit
Object was in daylight at epoch
Visualization orbit readout
Latitude
-75.97128°
Longitude
141.17638°
Altitude
972.421 km
Speed
7.363 km/s
Apparent Right ascension
07h 30m 44s
Apparent Declination
-71° 05' 47"
Sunlit
Object is in daylight
Visualization observer readout
Local Sidereal Time
20:46:48
Azimuth
168.715° S
Elevation
-57.35°
Doppler factor
1
Orbital elements
Apogee altitude
971.163 km
Perigee altitude
905.505 km
Semi-major axis
7,316.471 km
Eccentricity
0.00449
Inclination
82.9439°
RAAN
25.9397°
Arg. of periapsis
20.679°
True anomaly
Unknown
Mean anomaly
350.6799°
Eccentric anomaly
Unknown
Mean motion
3.46809 °/min
Orbital period
103.8 mins
BSTAR
0.00026295
Loading maneuver chart data...
Loading SW <> Apogee altitude chart data...
Loading historical data...
Loading historical data...
Loading historical data...
Loading historical data...
Loading historical data...
Loading historical data...
Loading historical data...

COSMOS 1275 DEB Visibility forecast

Observer location: undefined°, undefined°

Span
Click to sort rows by Start time (UTC) header in descending order
Start Az.
Max El. time (UTC)
Max El. Az.
Max El.
End time (UTC)
End Az.
7 mins2025-07-01 13:06:34.663Z125.884° SE2025-07-01 13:10:34.663Z79.904° E19.059°2025-07-01 13:13:34.663Z45.344° ENE
9 mins2025-07-01 14:50:34.663Z211.668° SW2025-07-01 14:54:34.663Z285.691° WNW38.268°2025-07-01 14:59:34.663Z355.318° N
5 mins2025-07-01 23:59:34.663Z50.012° ENE2025-07-02 00:01:34.663Z72.51° E15.315°2025-07-02 00:04:34.663Z102.726° ESE
11 mins2025-07-02 01:41:34.663Z347.865° N2025-07-02 01:46:34.663Z253.743° W43.837°2025-07-02 01:52:34.663Z182.119° SSW
|